User: anonymous   Login
Location: Fremont
(37.5480°N, 121.9880°W)
Time: 23:59:42
(UTC-08:00)
Language:

Cosmos 1844 Rocket - Orbit

View from above orbital plane
View from above orbital plane
View from above satellite
View from above satellite

Ground track
Ground track

The orbit data is extracted from the following two-line orbital elements,

1 17974U 87041B   17019.54324578  .00000057  00000-0  51956-4 0  9996
2 17974  71.0059 223.0179 0016213 261.6077 129.1197 14.17214501535625
Epoch (UTC): 19 January 2017 13:02:16
Eccentricity: 0.0016213
inclination: 71.0059°
perigee height: 823 km
apogee height: 846 km
right ascension of ascending node: 223.0179°
argument of perigee: 261.6077°
revolutions per day: 14.17214501
mean anomaly at epoch: 129.1197°
orbit number at epoch: 53562

The dashed part of the orbit path shows where the satellite is in the earth's shadow,  

DLR